AFR2150 SOCA-SBGL

Flight info

Callsign AFR2150
Flight time 3h 56m
Altitude 39000
Route EPKIP1A EPKIP DCT OIA UA555 BEL/N0477F400 UZ3 MAVGU
Aircraft B772/H-SDE2E3FGHIJ5LORVWXY/LB1D1

Departure

Time 2026-05-01 11:20
Airport Cayenne – Félix Eboué Airport (SOCA)

Arrival

Time 2026-05-01 15:16
Airport Rio Galeão – Tom Jobim International Airport (SBGL)
Time Latitude Longitude Altitude Speed Heading
2026-05-01 11:11 4.82169 -52.36197 40 ft 2 kts 283°
2026-05-01 11:12 4.82166 -52.36183 40 ft 2 kts 274°
2026-05-01 11:12 4.82166 -52.36168 40 ft 2 kts 266°
2026-05-01 11:12 4.82168 -52.36153 40 ft 2 kts 257°
2026-05-01 11:12 4.82172 -52.36139 40 ft 2 kts 249°
2026-05-01 11:13 4.82174 -52.36133 41 ft 0 kts 246°
2026-05-01 11:13 4.82174 -52.36134 40 ft 0 kts 246°
2026-05-01 11:15 4.82174 -52.36135 40 ft 1 kts 246°
2026-05-01 11:15 4.82160 -52.36164 40 ft 8 kts 244°
2026-05-01 11:15 4.82133 -52.36213 40 ft 4 kts 239°
2026-05-01 11:15 4.82109 -52.36249 40 ft 7 kts 224°
2026-05-01 11:16 4.82055 -52.36248 40 ft 9 kts 161°
2026-05-01 11:16 4.81983 -52.36226 40 ft 11 kts 186°
2026-05-01 11:16 4.81924 -52.36287 39 ft 13 kts 244°
2026-05-01 11:16 4.81880 -52.36383 39 ft 16 kts 245°
2026-05-01 11:17 4.81830 -52.36494 38 ft 18 kts 245°
2026-05-01 11:17 4.81773 -52.36617 38 ft 20 kts 245°
2026-05-01 11:17 4.81712 -52.36753 37 ft 22 kts 246°
2026-05-01 11:17 4.81642 -52.36900 37 ft 23 kts 245°
2026-05-01 11:18 4.81571 -52.37054 38 ft 25 kts 245°
2026-05-01 11:18 4.81509 -52.37189 39 ft 17 kts 245°
2026-05-01 11:18 4.81467 -52.37280 40 ft 11 kts 245°
2026-05-01 11:18 4.81443 -52.37348 41 ft 10 kts 266°
2026-05-01 11:19 4.81447 -52.37410 42 ft 6 kts 258°
2026-05-01 11:19 4.81427 -52.37412 42 ft 4 kts 120°
2026-05-01 11:19 4.81429 -52.37370 42 ft 7 kts 71°
2026-05-01 11:19 4.81440 -52.37343 41 ft 1 kts 67°
2026-05-01 11:20 4.81489 -52.37230 40 ft 54 kts 65°
2026-05-01 11:20 4.81783 -52.36594 38 ft 145 kts 65°
2026-05-01 11:20 4.82282 -52.35474 379 ft 189 kts 67°
2026-05-01 11:20 4.82775 -52.34355 1540 ft 172 kts 66°
2026-05-01 11:21 4.83216 -52.33253 2134 ft 177 kts 73°
2026-05-01 11:21 4.83536 -52.31996 2522 ft 196 kts 76°
2026-05-01 11:21 4.83867 -52.30626 3006 ft 212 kts 75°
2026-05-01 11:21 4.84237 -52.29130 3513 ft 228 kts 75°
2026-05-01 11:22 4.84636 -52.27526 3967 ft 246 kts 76°
2026-05-01 11:22 4.85047 -52.25873 4664 ft 252 kts 76°
2026-05-01 11:22 4.85471 -52.24167 5440 ft 255 kts 76°
2026-05-01 11:22 4.85902 -52.22430 6154 ft 260 kts 76°
2026-05-01 11:23 4.86300 -52.20659 6890 ft 263 kts 83°
2026-05-01 11:23 4.86109 -52.18852 7529 ft 271 kts 108°
2026-05-01 11:23 4.85107 -52.17246 8144 ft 281 kts 133°
2026-05-01 11:23 4.83419 -52.16199 8812 ft 289 kts 154°
2026-05-01 11:24 4.81538 -52.15470 9521 ft 293 kts 156°
2026-05-01 11:24 4.79625 -52.14756 10188 ft 297 kts 156°
2026-05-01 11:24 4.75519 -52.13225 10956 ft 330 kts 156°
2026-05-01 11:25 4.73332 -52.12410 11460 ft 340 kts 156°
2026-05-01 11:25 4.68835 -52.10738 12885 ft 348 kts 156°
2026-05-01 11:25 4.66558 -52.09891 13600 ft 352 kts 156°
2026-05-01 11:26 4.64249 -52.09034 14390 ft 353 kts 156°
2026-05-01 11:26 4.59635 -52.07320 15987 ft 357 kts 156°
2026-05-01 11:26 4.57294 -52.06450 16765 ft 359 kts 156°
2026-05-01 11:27 4.54957 -52.05582 17511 ft 362 kts 156°
2026-05-01 11:27 4.52562 -52.04692 18221 ft 365 kts 156°
2026-05-01 11:27 4.50191 -52.03811 18883 ft 369 kts 157°
2026-05-01 11:27 4.47760 -52.02908 19516 ft 374 kts 157°
2026-05-01 11:28 4.45288 -52.01990 20180 ft 378 kts 158°
2026-05-01 11:28 4.42791 -52.01063 20812 ft 382 kts 158°
2026-05-01 11:28 4.40307 -52.00141 21438 ft 386 kts 158°
2026-05-01 11:29 4.35224 -51.98254 22635 ft 394 kts 158°
2026-05-01 11:29 4.32613 -51.97286 23182 ft 399 kts 158°
2026-05-01 11:29 4.27326 -51.95324 24255 ft 410 kts 158°
2026-05-01 11:30 4.24638 -51.94327 24791 ft 414 kts 158°
2026-05-01 11:30 4.21917 -51.93317 25293 ft 420 kts 158°
2026-05-01 11:30 4.19146 -51.92290 25793 ft 425 kts 158°
2026-05-01 11:30 4.16383 -51.91265 26280 ft 430 kts 158°
2026-05-01 11:31 4.13538 -51.90210 26758 ft 435 kts 158°
2026-05-01 11:31 4.10667 -51.89146 27233 ft 440 kts 158°
2026-05-01 11:31 4.07813 -51.88088 27699 ft 444 kts 158°
2026-05-01 11:31 4.04883 -51.87001 28155 ft 449 kts 158°
2026-05-01 11:32 4.01953 -51.85916 28704 ft 450 kts 157°
2026-05-01 11:32 3.98977 -51.84813 28948 ft 452 kts 157°
2026-05-01 11:32 3.96026 -51.83720 28963 ft 449 kts 158°
2026-05-01 11:33 3.90210 -51.81566 28968 ft 446 kts 158°
2026-05-01 11:33 3.84559 -51.79048 28964 ft 443 kts 146°
2026-05-01 11:34 3.79347 -51.75700 28963 ft 443 kts 144°
2026-05-01 11:34 3.74182 -51.72352 28963 ft 443 kts 144°
2026-05-01 11:35 3.68977 -51.68979 28961 ft 443 kts 144°
2026-05-01 11:35 3.63827 -51.65644 29256 ft 437 kts 144°
2026-05-01 11:35 3.61284 -51.63998 29854 ft 434 kts 145°
2026-05-01 11:36 3.58736 -51.62349 30465 ft 430 kts 145°
2026-05-01 11:36 3.56241 -51.60733 31070 ft 425 kts 146°
2026-05-01 11:36 3.53770 -51.59134 31678 ft 420 kts 146°
2026-05-01 11:36 3.51338 -51.57560 32282 ft 415 kts 146°
2026-05-01 11:37 3.48929 -51.56001 32925 ft 409 kts 146°
2026-05-01 11:37 3.46563 -51.54470 33601 ft 402 kts 146°
2026-05-01 11:37 3.44249 -51.52972 34275 ft 395 kts 146°
2026-05-01 11:37 3.41975 -51.51501 34958 ft 387 kts 146°
2026-05-01 11:38 3.39723 -51.50044 35646 ft 377 kts 146°
2026-05-01 11:38 3.37547 -51.48636 36291 ft 368 kts 146°
2026-05-01 11:38 3.35398 -51.47245 36379 ft 372 kts 146°
2026-05-01 11:39 3.30996 -51.44398 36457 ft 381 kts 146°
2026-05-01 11:39 3.26485 -51.41480 36497 ft 391 kts 146°
2026-05-01 11:40 3.21835 -51.38472 36500 ft 402 kts 146°
2026-05-01 11:40 3.17052 -51.35379 36505 ft 416 kts 146°
2026-05-01 11:41 3.12085 -51.32167 36525 ft 432 kts 146°
2026-05-01 11:41 3.06943 -51.28843 36537 ft 449 kts 147°
2026-05-01 11:42 3.01586 -51.25380 36547 ft 466 kts 146°
2026-05-01 11:42 2.96072 -51.21816 36775 ft 478 kts 146°
2026-05-01 11:42 2.93267 -51.20003 37240 ft 477 kts 146°
2026-05-01 11:43 2.90521 -51.18229 37906 ft 471 kts 146°
2026-05-01 11:43 2.87747 -51.16436 38510 ft 466 kts 146°
2026-05-01 11:43 2.85027 -51.14679 38926 ft 464 kts 146°
2026-05-01 11:44 2.79574 -51.11155 39170 ft 471 kts 146°
2026-05-01 11:44 2.76824 -51.09378 39381 ft 472 kts 146°
2026-05-01 11:44 2.74073 -51.07601 39731 ft 470 kts 146°
2026-05-01 11:44 2.71333 -51.05831 39987 ft 469 kts 146°
2026-05-01 11:45 2.65804 -51.02259 39964 ft 471 kts 146°
2026-05-01 11:45 2.60293 -50.98700 39960 ft 471 kts 146°
2026-05-01 11:46 2.54765 -50.95129 39962 ft 476 kts 146°
2026-05-01 11:46 2.49205 -50.91539 39963 ft 479 kts 146°
2026-05-01 11:47 2.43567 -50.87899 39961 ft 478 kts 146°
2026-05-01 11:47 2.37987 -50.84296 39960 ft 482 kts 147°
2026-05-01 11:48 2.32293 -50.80621 39959 ft 484 kts 146°
2026-05-01 11:48 2.26691 -50.77005 39963 ft 480 kts 147°
2026-05-01 11:49 2.21033 -50.73353 39961 ft 484 kts 146°
2026-05-01 11:49 2.15371 -50.69709 39965 ft 484 kts 147°
2026-05-01 11:50 2.09645 -50.66119 39964 ft 484 kts 147°
2026-05-01 11:50 2.03944 -50.62546 39966 ft 483 kts 147°
2026-05-01 11:51 1.98252 -50.58976 39968 ft 485 kts 147°
2026-05-01 11:51 1.92541 -50.55393 39965 ft 482 kts 147°
2026-05-01 11:52 1.86858 -50.51827 39960 ft 482 kts 147°
2026-05-01 11:52 1.81154 -50.48248 39958 ft 482 kts 147°
2026-05-01 11:53 1.75493 -50.44695 39958 ft 481 kts 147°
2026-05-01 11:53 1.69818 -50.41135 39955 ft 478 kts 147°
2026-05-01 11:54 1.64200 -50.37610 39953 ft 479 kts 147°
2026-05-01 11:54 1.58560 -50.34071 39951 ft 477 kts 147°
2026-05-01 11:55 1.52905 -50.30523 39952 ft 477 kts 147°
2026-05-01 11:55 1.47286 -50.26998 39953 ft 476 kts 146°
2026-05-01 11:56 1.41711 -50.23501 39953 ft 474 kts 147°
2026-05-01 11:56 1.36120 -50.19994 39950 ft 473 kts 147°
2026-05-01 11:57 1.30520 -50.16481 39954 ft 473 kts 146°
2026-05-01 11:57 1.24946 -50.12985 39958 ft 473 kts 146°
2026-05-01 11:58 1.19387 -50.09499 39953 ft 473 kts 146°
2026-05-01 11:59 1.11005 -50.04243 39954 ft 472 kts 146°
2026-05-01 11:59 1.05468 -50.00770 39954 ft 470 kts 146°
2026-05-01 12:00 0.97146 -49.95551 39949 ft 470 kts 147°
2026-05-01 12:01 0.88840 -49.90344 39945 ft 469 kts 146°
2026-05-01 12:01 0.83304 -49.86873 39956 ft 471 kts 146°
2026-05-01 12:02 0.77754 -49.83393 39964 ft 472 kts 146°
2026-05-01 12:02 0.72187 -49.79902 39963 ft 472 kts 146°
2026-05-01 12:03 0.66598 -49.76398 39959 ft 471 kts 146°
2026-05-01 12:03 0.61041 -49.72915 39958 ft 472 kts 147°
2026-05-01 12:04 0.55464 -49.69419 39955 ft 472 kts 146°
2026-05-01 12:04 0.49902 -49.65932 39958 ft 473 kts 146°
2026-05-01 12:05 0.44352 -49.62453 39955 ft 473 kts 146°
2026-05-01 12:05 0.35979 -49.57204 39951 ft 473 kts 146°
2026-05-01 12:06 0.30382 -49.53696 39955 ft 474 kts 146°
2026-05-01 12:06 0.24806 -49.50201 39949 ft 473 kts 146°
2026-05-01 12:07 0.19220 -49.46699 39946 ft 473 kts 146°
2026-05-01 12:07 0.13659 -49.43213 39941 ft 473 kts 146°
2026-05-01 12:08 0.08039 -49.39690 39939 ft 473 kts 146°
2026-05-01 12:08 0.02480 -49.36206 39936 ft 473 kts 146°
2026-05-01 12:09 -0.03099 -49.32709 39931 ft 473 kts 146°
2026-05-01 12:09 -0.08675 -49.29214 39940 ft 473 kts 146°
2026-05-01 12:10 -0.17083 -49.23943 39935 ft 474 kts 146°
2026-05-01 12:11 -0.25446 -49.18701 39936 ft 474 kts 146°
2026-05-01 12:11 -0.31027 -49.15203 39930 ft 473 kts 146°
2026-05-01 12:12 -0.36603 -49.11707 39933 ft 474 kts 146°
2026-05-01 12:12 -0.42209 -49.08193 39938 ft 474 kts 146°
2026-05-01 12:13 -0.47821 -49.04675 39944 ft 475 kts 146°
2026-05-01 12:13 -0.53397 -49.01179 39948 ft 474 kts 146°
2026-05-01 12:14 -0.58990 -48.97673 39951 ft 474 kts 146°
2026-05-01 12:14 -0.64569 -48.94176 39951 ft 473 kts 146°
2026-05-01 12:15 -0.70170 -48.90665 39950 ft 473 kts 146°
2026-05-01 12:15 -0.75736 -48.87174 39950 ft 474 kts 146°
2026-05-01 12:16 -0.81359 -48.83649 39950 ft 475 kts 146°
2026-05-01 12:16 -0.86939 -48.80151 39949 ft 475 kts 146°
2026-05-01 12:17 -0.92549 -48.76633 39950 ft 475 kts 146°
2026-05-01 12:17 -0.98171 -48.73108 39952 ft 475 kts 146°
2026-05-01 12:18 -1.03767 -48.69599 39951 ft 475 kts 146°
2026-05-01 12:18 -1.09378 -48.66081 39951 ft 475 kts 146°
2026-05-01 12:19 -1.14972 -48.62573 39949 ft 475 kts 146°
2026-05-01 12:19 -1.20618 -48.59032 39950 ft 476 kts 146°
2026-05-01 12:20 -1.26211 -48.55524 39951 ft 476 kts 146°
2026-05-01 12:20 -1.31828 -48.52001 39951 ft 475 kts 146°
2026-05-01 12:21 -1.37485 -48.48603 39944 ft 477 kts 153°
2026-05-01 12:21 -1.43834 -48.46512 39954 ft 480 kts 164°
2026-05-01 12:22 -1.50335 -48.44904 39948 ft 480 kts 165°
2026-05-01 12:22 -1.56826 -48.43300 39942 ft 480 kts 165°
2026-05-01 12:23 -1.63324 -48.41693 39938 ft 480 kts 165°
2026-05-01 12:23 -1.69809 -48.40088 39936 ft 480 kts 165°
2026-05-01 12:24 -1.76328 -48.38475 39936 ft 480 kts 165°
2026-05-01 12:24 -1.82808 -48.36871 39936 ft 480 kts 165°
2026-05-01 12:25 -1.92528 -48.34463 39940 ft 480 kts 165°
2026-05-01 12:26 -1.99025 -48.32854 39941 ft 480 kts 165°
2026-05-01 12:26 -2.08789 -48.30434 39942 ft 480 kts 165°
2026-05-01 12:27 -2.18543 -48.28016 39939 ft 480 kts 165°
2026-05-01 12:28 -2.28291 -48.25598 39938 ft 480 kts 165°
2026-05-01 12:29 -2.38017 -48.23185 39938 ft 480 kts 165°
2026-05-01 12:29 -2.47832 -48.20750 39944 ft 480 kts 165°
2026-05-01 12:30 -2.57581 -48.18331 39947 ft 481 kts 165°
2026-05-01 12:31 -2.64079 -48.16718 39953 ft 481 kts 165°
2026-05-01 12:31 -2.70592 -48.15105 39954 ft 481 kts 165°
2026-05-01 12:32 -2.77127 -48.13506 39956 ft 481 kts 165°
2026-05-01 12:32 -2.86904 -48.11113 39961 ft 483 kts 165°
2026-05-01 12:33 -2.93469 -48.09505 39962 ft 482 kts 165°
2026-05-01 12:33 -2.99972 -48.07912 39961 ft 482 kts 165°
2026-05-01 12:34 -3.06542 -48.06302 39963 ft 482 kts 165°
2026-05-01 12:34 -3.13096 -48.04696 39960 ft 481 kts 165°
2026-05-01 12:35 -3.19603 -48.03101 39961 ft 481 kts 165°
2026-05-01 12:35 -3.26141 -48.01499 39960 ft 482 kts 165°
2026-05-01 12:36 -3.32727 -47.99884 39962 ft 482 kts 165°
2026-05-01 12:36 -3.39255 -47.98284 39963 ft 481 kts 165°
2026-05-01 12:37 -3.45765 -47.96688 39965 ft 480 kts 165°
2026-05-01 12:37 -3.52308 -47.95079 39967 ft 480 kts 165°
2026-05-01 12:38 -3.58800 -47.93428 39970 ft 480 kts 165°
2026-05-01 12:38 -3.65280 -47.91777 39973 ft 481 kts 165°
2026-05-01 12:39 -3.71843 -47.90107 39978 ft 480 kts 165°
2026-05-01 12:39 -3.78319 -47.88459 39980 ft 479 kts 165°
2026-05-01 12:40 -3.84771 -47.86818 39979 ft 478 kts 165°
2026-05-01 12:40 -3.91273 -47.85164 39979 ft 479 kts 165°
2026-05-01 12:41 -3.97720 -47.83524 39976 ft 478 kts 165°
2026-05-01 12:41 -4.04209 -47.81873 39977 ft 478 kts 165°
2026-05-01 12:42 -4.10679 -47.80226 39978 ft 478 kts 165°
2026-05-01 12:42 -4.17176 -47.78573 39978 ft 478 kts 165°
2026-05-01 12:43 -4.23608 -47.76936 39984 ft 478 kts 165°
2026-05-01 12:43 -4.30093 -47.75285 39986 ft 479 kts 165°
2026-05-01 12:44 -4.36570 -47.73636 39979 ft 479 kts 165°
2026-05-01 12:45 -4.49324 -47.70433 39982 ft 479 kts 165°
2026-05-01 12:45 -4.55815 -47.68835 39978 ft 480 kts 165°
2026-05-01 12:46 -4.62322 -47.67231 39990 ft 479 kts 165°
2026-05-01 12:46 -4.68816 -47.65629 39990 ft 479 kts 165°
2026-05-01 12:47 -4.75331 -47.64021 40002 ft 480 kts 165°
2026-05-01 12:47 -4.81789 -47.62427 40005 ft 479 kts 165°
2026-05-01 12:48 -4.88312 -47.60816 40008 ft 479 kts 166°
2026-05-01 12:48 -4.94775 -47.59219 40005 ft 479 kts 166°
2026-05-01 12:49 -5.01260 -47.57617 40010 ft 480 kts 166°
2026-05-01 12:49 -5.07783 -47.56005 40005 ft 480 kts 166°
2026-05-01 12:50 -5.14342 -47.54384 39999 ft 480 kts 166°
2026-05-01 12:50 -5.20866 -47.52771 39992 ft 481 kts 166°
2026-05-01 12:51 -5.27351 -47.51167 39982 ft 480 kts 166°
2026-05-01 12:52 -5.37121 -47.48751 39970 ft 480 kts 166°
2026-05-01 12:52 -5.46844 -47.46345 39970 ft 480 kts 166°
2026-05-01 12:53 -5.56645 -47.43968 39971 ft 482 kts 167°
2026-05-01 12:54 -5.63176 -47.42470 39969 ft 480 kts 167°
2026-05-01 12:54 -5.73031 -47.40202 39970 ft 483 kts 167°
2026-05-01 12:55 -5.82832 -47.37936 39971 ft 480 kts 167°
2026-05-01 12:56 -5.89346 -47.36427 39979 ft 481 kts 167°
2026-05-01 12:56 -5.95851 -47.34919 39979 ft 480 kts 167°
2026-05-01 12:57 -6.02411 -47.33398 39979 ft 480 kts 167°
2026-05-01 12:57 -6.12209 -47.31125 39978 ft 482 kts 167°
2026-05-01 12:58 -6.18775 -47.29602 39979 ft 481 kts 167°
2026-05-01 12:59 -6.28557 -47.27331 39980 ft 480 kts 167°
2026-05-01 12:59 -6.38384 -47.25050 39984 ft 480 kts 167°
2026-05-01 13:00 -6.48156 -47.22780 39989 ft 480 kts 167°
2026-05-01 13:01 -6.57954 -47.20503 39993 ft 482 kts 167°
2026-05-01 13:02 -6.67800 -47.18214 39999 ft 481 kts 167°
2026-05-01 13:07 -7.39742 -47.01459 40012 ft 478 kts 168°
2026-05-01 13:08 -7.46216 -46.99949 40008 ft 479 kts 168°
2026-05-01 13:08 -7.52766 -46.98420 40008 ft 479 kts 168°
2026-05-01 13:09 -7.59263 -46.96903 40010 ft 478 kts 168°
2026-05-01 13:09 -7.65708 -46.95398 40012 ft 475 kts 168°
2026-05-01 13:10 -7.72198 -46.93882 40014 ft 474 kts 168°
2026-05-01 13:10 -7.78603 -46.92386 40014 ft 473 kts 168°
2026-05-01 13:11 -7.85048 -46.90879 40016 ft 473 kts 168°
2026-05-01 13:11 -7.91519 -46.89366 40016 ft 474 kts 168°
2026-05-01 13:12 -7.97941 -46.87864 40019 ft 474 kts 168°
2026-05-01 13:12 -8.04405 -46.86351 40016 ft 474 kts 168°
2026-05-01 13:13 -8.10849 -46.84843 40023 ft 473 kts 168°
2026-05-01 13:13 -8.17263 -46.83342 40030 ft 472 kts 168°
2026-05-01 13:14 -8.23655 -46.81844 40033 ft 471 kts 168°
2026-05-01 13:14 -8.30079 -46.80339 40037 ft 471 kts 168°
2026-05-01 13:15 -8.36494 -46.78836 40037 ft 471 kts 168°
2026-05-01 13:15 -8.42910 -46.77332 40040 ft 471 kts 168°
2026-05-01 13:16 -8.49317 -46.75829 40044 ft 471 kts 168°
2026-05-01 13:16 -8.55757 -46.74319 40048 ft 470 kts 168°
2026-05-01 13:17 -8.68544 -46.71317 40052 ft 470 kts 168°
2026-05-01 13:18 -8.78161 -46.69059 40052 ft 470 kts 168°
2026-05-01 13:18 -8.84536 -46.67561 40054 ft 470 kts 168°
2026-05-01 13:19 -8.90900 -46.66064 40057 ft 469 kts 168°
2026-05-01 13:20 -9.00490 -46.63805 40066 ft 467 kts 168°
2026-05-01 13:20 -9.06832 -46.62311 40066 ft 469 kts 168°
2026-05-01 13:21 -9.16431 -46.60049 40068 ft 468 kts 167°
2026-05-01 13:21 -9.22791 -46.58549 40065 ft 468 kts 167°
2026-05-01 13:22 -9.29165 -46.57046 40063 ft 468 kts 167°
2026-05-01 13:22 -9.35545 -46.55540 40063 ft 470 kts 167°
2026-05-01 13:23 -9.41939 -46.54031 40066 ft 469 kts 167°
2026-05-01 13:23 -9.48295 -46.52530 40071 ft 469 kts 167°
2026-05-01 13:24 -9.54678 -46.51022 40075 ft 469 kts 167°
2026-05-01 13:25 -9.64204 -46.48770 40074 ft 468 kts 167°
2026-05-01 13:25 -9.70562 -46.47267 40069 ft 469 kts 167°
2026-05-01 13:26 -9.76937 -46.45759 40068 ft 469 kts 167°
2026-05-01 13:26 -9.83352 -46.44241 40074 ft 470 kts 167°
2026-05-01 13:27 -9.89704 -46.42737 40080 ft 469 kts 167°
2026-05-01 13:27 -9.99252 -46.40476 40093 ft 468 kts 167°
2026-05-01 13:28 -10.08832 -46.38205 40089 ft 470 kts 167°
2026-05-01 13:29 -10.21585 -46.35181 40089 ft 469 kts 167°
2026-05-01 13:31 -10.40653 -46.30663 40095 ft 468 kts 167°
2026-05-01 13:32 -10.56480 -46.26908 40104 ft 466 kts 166°
2026-05-01 13:33 -10.72321 -46.23146 40111 ft 466 kts 166°
2026-05-01 13:34 -10.84963 -46.20141 40122 ft 466 kts 166°
2026-05-01 13:35 -10.94432 -46.17887 40122 ft 467 kts 166°
2026-05-01 13:36 -11.03949 -46.15622 40140 ft 466 kts 166°
2026-05-01 13:36 -11.13418 -46.13366 40139 ft 466 kts 166°
2026-05-01 13:37 -11.19766 -46.11853 40141 ft 467 kts 166°
2026-05-01 13:37 -11.26102 -46.10342 40145 ft 466 kts 166°
2026-05-01 13:38 -11.35585 -46.08079 40150 ft 466 kts 166°
2026-05-01 13:39 -11.41929 -46.06564 40147 ft 467 kts 166°
2026-05-01 13:39 -11.48291 -46.05045 40146 ft 467 kts 166°
2026-05-01 13:40 -11.54623 -46.03532 40150 ft 468 kts 166°
2026-05-01 13:40 -11.60969 -46.02015 40154 ft 468 kts 166°
2026-05-01 13:41 -11.67324 -46.00502 40153 ft 468 kts 166°
2026-05-01 13:41 -11.73684 -45.98988 40160 ft 468 kts 166°
2026-05-01 13:42 -11.80037 -45.97474 40160 ft 468 kts 166°
2026-05-01 13:42 -11.86427 -45.95950 40158 ft 469 kts 166°
2026-05-01 13:43 -11.92804 -45.94426 40161 ft 469 kts 166°
2026-05-01 13:43 -11.99174 -45.92898 40159 ft 467 kts 166°
2026-05-01 13:44 -12.05545 -45.91369 40159 ft 468 kts 166°
2026-05-01 13:44 -12.11930 -45.89836 40162 ft 469 kts 166°
2026-05-01 13:45 -12.18313 -45.88304 40158 ft 469 kts 166°
2026-05-01 13:45 -12.23691 -45.87012 40157 ft 469 kts 166°
2026-05-01 13:46 -12.30077 -45.85477 40160 ft 468 kts 166°
2026-05-01 13:46 -12.36425 -45.83950 40157 ft 469 kts 166°
2026-05-01 13:47 -12.42804 -45.82415 40157 ft 469 kts 166°
2026-05-01 13:47 -12.49180 -45.80880 40156 ft 470 kts 166°
2026-05-01 13:48 -12.55577 -45.79340 40155 ft 469 kts 166°
2026-05-01 13:48 -12.61950 -45.77805 40154 ft 469 kts 166°
2026-05-01 13:49 -12.68315 -45.76270 40154 ft 469 kts 166°
2026-05-01 13:49 -12.74698 -45.74730 40158 ft 469 kts 166°
2026-05-01 13:50 -12.81041 -45.73199 40165 ft 469 kts 166°
2026-05-01 13:50 -12.87441 -45.71654 40156 ft 469 kts 166°
2026-05-01 13:51 -12.93816 -45.70114 40154 ft 470 kts 166°
2026-05-01 13:51 -13.00197 -45.68572 40151 ft 471 kts 166°
2026-05-01 13:52 -13.06556 -45.67034 40155 ft 470 kts 166°
2026-05-01 13:52 -13.12911 -45.65497 40161 ft 469 kts 166°
2026-05-01 13:53 -13.19282 -45.63956 40163 ft 467 kts 166°
2026-05-01 13:53 -13.28785 -45.61656 40165 ft 468 kts 166°
2026-05-01 13:54 -13.35147 -45.60116 40167 ft 468 kts 166°
2026-05-01 13:54 -13.41506 -45.58577 40165 ft 469 kts 166°
2026-05-01 13:55 -13.47884 -45.57034 40169 ft 468 kts 166°
2026-05-01 13:55 -13.54254 -45.55490 40170 ft 468 kts 166°
2026-05-01 13:56 -13.60613 -45.53949 40168 ft 467 kts 166°
2026-05-01 13:56 -13.66950 -45.52412 40172 ft 467 kts 166°
2026-05-01 13:57 -13.72234 -45.51130 40173 ft 468 kts 166°
2026-05-01 13:57 -13.79628 -45.49333 40169 ft 467 kts 166°
2026-05-01 13:58 -13.85969 -45.47784 40178 ft 468 kts 166°
2026-05-01 13:58 -13.92357 -45.46223 40179 ft 468 kts 166°
2026-05-01 13:59 -13.98686 -45.44677 40183 ft 468 kts 166°
2026-05-01 13:59 -14.05042 -45.43122 40185 ft 467 kts 166°
2026-05-01 14:00 -14.11377 -45.41569 40185 ft 468 kts 166°
2026-05-01 14:00 -14.17744 -45.40006 40188 ft 467 kts 166°
2026-05-01 14:01 -14.24073 -45.38451 40185 ft 467 kts 166°
2026-05-01 14:01 -14.30413 -45.36894 40184 ft 468 kts 166°
2026-05-01 14:02 -14.36764 -45.35332 40187 ft 469 kts 166°
2026-05-01 14:02 -14.43153 -45.33767 40186 ft 468 kts 166°
2026-05-01 14:03 -14.49519 -45.32212 40189 ft 468 kts 166°
2026-05-01 14:03 -14.55851 -45.30665 40190 ft 468 kts 166°
2026-05-01 14:04 -14.62189 -45.29115 40189 ft 467 kts 166°
2026-05-01 14:04 -14.67473 -45.27821 40187 ft 468 kts 166°
2026-05-01 14:05 -14.74855 -45.26014 40182 ft 468 kts 166°
2026-05-01 14:05 -14.81212 -45.24456 40188 ft 468 kts 166°
2026-05-01 14:06 -14.87605 -45.22888 40191 ft 468 kts 166°
2026-05-01 14:06 -14.93943 -45.21333 40194 ft 468 kts 166°
2026-05-01 14:07 -15.00274 -45.19778 40198 ft 468 kts 166°
2026-05-01 14:08 -15.09796 -45.17434 40194 ft 467 kts 166°
2026-05-01 14:08 -15.16157 -45.15867 40189 ft 468 kts 166°
2026-05-01 14:09 -15.22511 -45.14301 40174 ft 468 kts 166°
2026-05-01 14:09 -15.28878 -45.12730 40176 ft 468 kts 166°
2026-05-01 14:10 -15.35214 -45.11167 40170 ft 468 kts 166°
2026-05-01 14:10 -15.41549 -45.09602 40170 ft 469 kts 166°
2026-05-01 14:11 -15.47912 -45.08030 40162 ft 468 kts 166°
2026-05-01 14:11 -15.57480 -45.05669 40162 ft 469 kts 166°
2026-05-01 14:12 -15.63866 -45.04096 40154 ft 470 kts 166°
2026-05-01 14:12 -15.70249 -45.02523 40151 ft 471 kts 166°
2026-05-01 14:13 -15.75575 -45.01209 40147 ft 470 kts 166°
2026-05-01 14:13 -15.83005 -44.99375 40148 ft 469 kts 166°
2026-05-01 14:14 -15.89340 -44.97810 40139 ft 469 kts 166°
2026-05-01 14:14 -15.95738 -44.96229 40141 ft 469 kts 167°
2026-05-01 14:15 -16.02088 -44.94658 40140 ft 470 kts 167°
2026-05-01 14:15 -16.08474 -44.93077 40143 ft 471 kts 167°
2026-05-01 14:16 -16.14873 -44.91493 40148 ft 470 kts 167°
2026-05-01 14:16 -16.21278 -44.89904 40148 ft 469 kts 166°
2026-05-01 14:17 -16.27638 -44.88309 40156 ft 469 kts 167°
2026-05-01 14:17 -16.34034 -44.86704 40155 ft 469 kts 167°
2026-05-01 14:18 -16.40414 -44.85101 40159 ft 469 kts 167°
2026-05-01 14:18 -16.45700 -44.83773 40168 ft 469 kts 167°
2026-05-01 14:19 -16.53133 -44.81904 40169 ft 470 kts 166°
2026-05-01 14:19 -16.59481 -44.80307 40168 ft 469 kts 167°
2026-05-01 14:20 -16.69036 -44.77901 40170 ft 469 kts 167°
2026-05-01 14:21 -16.75385 -44.76301 40177 ft 470 kts 167°
2026-05-01 14:21 -16.81778 -44.74689 40178 ft 470 kts 167°
2026-05-01 14:22 -16.91343 -44.72309 40184 ft 470 kts 167°
2026-05-01 14:22 -16.97721 -44.70744 40178 ft 470 kts 167°
2026-05-01 14:23 -17.04075 -44.69183 40188 ft 470 kts 167°
2026-05-01 14:23 -17.10476 -44.67607 40178 ft 470 kts 167°
2026-05-01 14:24 -17.16847 -44.66038 40177 ft 471 kts 167°
2026-05-01 14:24 -17.23243 -44.64462 40193 ft 471 kts 167°
2026-05-01 14:25 -17.29642 -44.62884 40191 ft 472 kts 167°
2026-05-01 14:25 -17.36052 -44.61301 40199 ft 471 kts 167°
2026-05-01 14:26 -17.45638 -44.58933 40211 ft 471 kts 167°
2026-05-01 14:27 -17.52011 -44.57357 40222 ft 473 kts 167°
2026-05-01 14:27 -17.58474 -44.55757 40224 ft 476 kts 167°
2026-05-01 14:28 -17.68147 -44.53337 40227 ft 474 kts 166°
2026-05-01 14:28 -17.74557 -44.51627 40225 ft 473 kts 166°
2026-05-01 14:29 -17.80947 -44.49921 40234 ft 473 kts 166°
2026-05-01 14:30 -17.93733 -44.46513 40240 ft 474 kts 166°
2026-05-01 14:31 -18.03317 -44.43957 40237 ft 474 kts 166°
2026-05-01 14:31 -18.09721 -44.42289 40230 ft 474 kts 167°
2026-05-01 14:32 -18.16161 -44.40662 40220 ft 474 kts 167°
2026-05-01 14:32 -18.22612 -44.39027 40215 ft 475 kts 167°
2026-05-01 14:33 -18.29036 -44.37397 40212 ft 475 kts 167°
2026-05-01 14:33 -18.35475 -44.35761 40213 ft 477 kts 167°
2026-05-01 14:34 -18.42000 -44.34100 40210 ft 478 kts 167°
2026-05-01 14:34 -18.48455 -44.32457 40212 ft 478 kts 167°
2026-05-01 14:35 -18.54948 -44.30801 40209 ft 478 kts 167°
2026-05-01 14:35 -18.61420 -44.29150 40211 ft 476 kts 167°
2026-05-01 14:36 -18.67848 -44.27509 40212 ft 476 kts 167°
2026-05-01 14:36 -18.74307 -44.25859 40209 ft 477 kts 167°
2026-05-01 14:37 -18.80800 -44.24198 40214 ft 477 kts 167°
2026-05-01 14:37 -18.87250 -44.22541 40215 ft 478 kts 167°
2026-05-01 14:38 -18.93741 -44.20873 40221 ft 477 kts 167°
2026-05-01 14:38 -19.00178 -44.19217 40220 ft 478 kts 167°
2026-05-01 14:39 -19.06685 -44.17542 40221 ft 477 kts 168°
2026-05-01 14:39 -19.13180 -44.15869 40223 ft 476 kts 168°
2026-05-01 14:40 -19.19605 -44.14213 40224 ft 475 kts 168°
2026-05-01 14:40 -19.26044 -44.12552 40226 ft 477 kts 168°
2026-05-01 14:41 -19.32518 -44.10880 40228 ft 477 kts 168°
2026-05-01 14:41 -19.38986 -44.09208 40233 ft 477 kts 168°
2026-05-01 14:42 -19.45470 -44.07531 40237 ft 477 kts 168°
2026-05-01 14:42 -19.51896 -44.05868 40242 ft 476 kts 168°
2026-05-01 14:43 -19.58366 -44.04279 40246 ft 475 kts 173°
2026-05-01 14:43 -19.64961 -44.03266 40249 ft 475 kts 174°
2026-05-01 14:44 -19.71492 -44.02258 40253 ft 475 kts 173°
2026-05-01 14:44 -19.81341 -44.00702 40259 ft 476 kts 175°
2026-05-01 14:45 -19.91237 -44.01023 40268 ft 471 kts 187°
2026-05-01 14:46 -19.97778 -44.01614 40276 ft 470 kts 187°
2026-05-01 14:46 -20.07568 -44.02493 40291 ft 471 kts 187°
2026-05-01 14:47 -20.14125 -44.03082 40283 ft 471 kts 187°
2026-05-01 14:48 -20.23929 -44.03966 40279 ft 471 kts 187°
2026-05-01 14:48 -20.33750 -44.04850 40276 ft 469 kts 187°
2026-05-01 14:49 -20.46761 -44.06024 40274 ft 468 kts 187°
2026-05-01 14:50 -20.59783 -44.07200 40276 ft 468 kts 187°
2026-05-01 14:51 -20.69530 -44.08080 40284 ft 468 kts 188°
2026-05-01 14:52 -20.79244 -44.08955 40165 ft 468 kts 188°
2026-05-01 14:52 -20.85842 -44.09553 38539 ft 474 kts 187°
2026-05-01 14:53 -20.89094 -44.09846 38037 ft 469 kts 188°
2026-05-01 14:53 -20.92378 -44.10143 37499 ft 469 kts 188°
2026-05-01 14:53 -20.95626 -44.10438 36942 ft 472 kts 188°
2026-05-01 14:53 -20.98900 -44.10735 36375 ft 473 kts 188°
2026-05-01 14:54 -21.02191 -44.11033 35807 ft 473 kts 188°
2026-05-01 14:54 -21.05460 -44.11329 35248 ft 474 kts 187°
2026-05-01 14:54 -21.08798 -44.11632 34671 ft 476 kts 187°
2026-05-01 14:54 -21.12119 -44.11933 34105 ft 479 kts 187°
2026-05-01 14:55 -21.15447 -44.12236 33536 ft 481 kts 187°
2026-05-01 14:55 -21.18806 -44.12541 32955 ft 483 kts 187°
2026-05-01 14:55 -21.22170 -44.12847 32422 ft 484 kts 187°
2026-05-01 14:55 -21.25521 -44.13151 31869 ft 486 kts 187°
2026-05-01 14:56 -21.28894 -44.13458 31287 ft 488 kts 187°
2026-05-01 14:56 -21.32296 -44.13768 30676 ft 489 kts 187°
2026-05-01 14:56 -21.35687 -44.14076 30041 ft 485 kts 187°
2026-05-01 14:56 -21.39027 -44.14367 29421 ft 480 kts 185°
2026-05-01 14:57 -21.42381 -44.14279 28807 ft 478 kts 175°
2026-05-01 14:57 -21.48774 -44.12446 27511 ft 477 kts 157°
2026-05-01 14:57 -21.51718 -44.10798 26728 ft 477 kts 152°
2026-05-01 14:58 -21.54567 -44.09016 25979 ft 476 kts 151°
2026-05-01 14:58 -21.57423 -44.07254 25243 ft 472 kts 154°
2026-05-01 14:58 -21.60376 -44.05716 24652 ft 466 kts 156°
2026-05-01 14:58 -21.63256 -44.04255 24169 ft 458 kts 156°
2026-05-01 14:59 -21.66123 -44.02798 23669 ft 450 kts 156°
2026-05-01 14:59 -21.68949 -44.01357 23164 ft 444 kts 156°
2026-05-01 14:59 -21.71703 -43.99950 22662 ft 438 kts 156°
2026-05-01 14:59 -21.74422 -43.98558 22166 ft 434 kts 156°
2026-05-01 15:00 -21.79851 -43.95771 21170 ft 431 kts 156°
2026-05-01 15:00 -21.82549 -43.94385 20670 ft 427 kts 156°
2026-05-01 15:00 -21.85241 -43.92999 20172 ft 424 kts 156°
2026-05-01 15:01 -21.87884 -43.91638 19758 ft 421 kts 156°
2026-05-01 15:01 -21.90525 -43.90277 19360 ft 420 kts 156°
2026-05-01 15:01 -21.93137 -43.88930 18956 ft 418 kts 156°
2026-05-01 15:01 -21.95765 -43.87574 18548 ft 415 kts 156°
2026-05-01 15:02 -21.98362 -43.86234 18141 ft 413 kts 156°
2026-05-01 15:02 -22.00107 -43.85332 17866 ft 411 kts 156°
2026-05-01 15:02 -22.03523 -43.83567 17315 ft 408 kts 156°
2026-05-01 15:02 -22.06071 -43.82250 16860 ft 406 kts 156°
2026-05-01 15:03 -22.08605 -43.80940 16415 ft 401 kts 156°
2026-05-01 15:03 -22.11123 -43.79637 16008 ft 398 kts 156°
2026-05-01 15:03 -22.13616 -43.78347 15614 ft 396 kts 155°
2026-05-01 15:03 -22.16108 -43.77056 15236 ft 394 kts 155°
2026-05-01 15:04 -22.18555 -43.75789 14840 ft 391 kts 155°
2026-05-01 15:04 -22.21014 -43.74515 14461 ft 388 kts 155°
2026-05-01 15:04 -22.23426 -43.73264 14072 ft 385 kts 155°
2026-05-01 15:04 -22.25838 -43.72013 13702 ft 383 kts 155°
2026-05-01 15:05 -22.28238 -43.70768 13326 ft 381 kts 155°
2026-05-01 15:05 -22.30620 -43.69532 12975 ft 377 kts 155°
2026-05-01 15:05 -22.33009 -43.68292 12659 ft 377 kts 155°
2026-05-01 15:05 -22.35361 -43.67070 12296 ft 375 kts 154°
2026-05-01 15:06 -22.37706 -43.65852 11936 ft 373 kts 154°
2026-05-01 15:06 -22.40026 -43.64646 11548 ft 371 kts 154°
2026-05-01 15:06 -22.42377 -43.63423 11189 ft 368 kts 154°
2026-05-01 15:06 -22.44676 -43.62227 10837 ft 367 kts 154°
2026-05-01 15:07 -22.46971 -43.61033 10490 ft 365 kts 154°
2026-05-01 15:07 -22.49225 -43.59860 10135 ft 356 kts 153°
2026-05-01 15:07 -22.51437 -43.58709 9759 ft 344 kts 153°
2026-05-01 15:07 -22.53549 -43.57608 9363 ft 334 kts 153°
2026-05-01 15:08 -22.55633 -43.56523 8997 ft 324 kts 153°
2026-05-01 15:08 -22.57628 -43.55482 8652 ft 310 kts 153°
2026-05-01 15:08 -22.59505 -43.54501 8362 ft 295 kts 153°
2026-05-01 15:08 -22.61322 -43.53550 8095 ft 282 kts 153°
2026-05-01 15:09 -22.63087 -43.52626 7834 ft 282 kts 152°
2026-05-01 15:09 -22.64843 -43.51706 7540 ft 281 kts 152°
2026-05-01 15:09 -22.66622 -43.50780 7244 ft 279 kts 152°
2026-05-01 15:09 -22.68373 -43.49869 6966 ft 277 kts 152°
2026-05-01 15:10 -22.70045 -43.48998 6707 ft 276 kts 152°
2026-05-01 15:10 -22.73635 -43.47509 5695 ft 280 kts 163°
2026-05-01 15:10 -22.75523 -43.46964 5157 ft 278 kts 163°
2026-05-01 15:11 -22.77381 -43.46426 4637 ft 276 kts 163°
2026-05-01 15:11 -22.81080 -43.45335 3595 ft 272 kts 160°
2026-05-01 15:11 -22.82679 -43.44335 3144 ft 262 kts 133°
2026-05-01 15:12 -22.83595 -43.42789 2847 ft 230 kts 106°
2026-05-01 15:12 -22.83800 -43.39576 2389 ft 198 kts 79°
2026-05-01 15:12 -22.83480 -43.38185 2163 ft 178 kts 74°
2026-05-01 15:13 -22.82637 -43.34984 1691 ft 130 kts 74°
2026-05-01 15:14 -22.82157 -43.33113 1387 ft 129 kts 74°
2026-05-01 15:14 -22.81914 -43.32173 1227 ft 130 kts 74°
2026-05-01 15:14 -22.81415 -43.30289 905 ft 131 kts 73°
2026-05-01 15:15 -22.80927 -43.28408 574 ft 130 kts 74°
2026-05-01 15:15 -22.80434 -43.26501 277 ft 131 kts 75°
2026-05-01 15:16 -22.79949 -43.24605 38 ft 115 kts 75°
2026-05-01 15:16 -22.79650 -43.23446 37 ft 49 kts 74°
2026-05-01 15:17 -22.79482 -43.22791 37 ft 37 kts 74°
2026-05-01 15:18 -22.79299 -43.22081 38 ft 22 kts 74°
2026-05-01 15:18 -22.79258 -43.21920 38 ft 17 kts 75°
2026-05-01 15:19 -22.79428 -43.21866 38 ft 17 kts 214°
2026-05-01 15:19 -22.79556 -43.22148 37 ft 25 kts 254°
2026-05-01 15:19 -22.79609 -43.22348 37 ft 29 kts 254°
2026-05-01 15:20 -22.79733 -43.22832 37 ft 36 kts 254°
2026-05-01 15:20 -22.79801 -43.23096 37 ft 37 kts 254°
2026-05-01 15:20 -22.79871 -43.23368 37 ft 37 kts 255°
2026-05-01 15:21 -22.79943 -43.23648 37 ft 38 kts 254°
2026-05-01 15:21 -22.80016 -43.23932 37 ft 39 kts 254°
2026-05-01 15:21 -22.80090 -43.24219 37 ft 28 kts 254°
2026-05-01 15:21 -22.80126 -43.24360 37 ft 20 kts 254°
2026-05-01 15:22 -22.80211 -43.24683 37 ft 24 kts 254°
2026-05-01 15:22 -22.80257 -43.24867 37 ft 26 kts 254°
2026-05-01 15:22 -22.80308 -43.25065 37 ft 28 kts 254°
2026-05-01 15:23 -22.80369 -43.25270 37 ft 29 kts 248°
2026-05-01 15:23 -22.80467 -43.25432 37 ft 20 kts 228°
2026-05-01 15:23 -22.80581 -43.25542 37 ft 22 kts 219°
2026-05-01 15:23 -22.80705 -43.25637 37 ft 17 kts 216°
2026-05-01 15:24 -22.80792 -43.25683 37 ft 13 kts 176°
2026-05-01 15:24 -22.80865 -43.25608 37 ft 16 kts 121°
2026-05-01 15:24 -22.80911 -43.25509 37 ft 11 kts 115°
2026-05-01 15:24 -22.80982 -43.25474 37 ft 13 kts 180°
2026-05-01 15:25 -22.81063 -43.25476 37 ft 10 kts 178°
2026-05-01 15:25 -22.81150 -43.25462 37 ft 13 kts 157°
2026-05-01 15:25 -22.81193 -43.25382 37 ft 9 kts 85°
2026-05-01 15:25 -22.81175 -43.25325 37 ft 2 kts 65°
2026-05-01 15:26 -22.81167 -43.25309 37 ft 4 kts 65°
2026-05-01 15:26 -22.81166 -43.25305 37 ft 0 kts 65°